Weather History for Fort Drum, NY

Change the Weather History Date:

Saturday, February 9, 2013

  Actual Average Record
Temperature  
Mean Temperature 9 °F -  
Max Temperature 19 °F 26 °F 48 °F (2001)
Min Temperature -4 °F 8 °F -5 °F (1997)
Degree Days  
Heating Degree Days 56    
Moisture  
Dew Point 5 °F    
Average Humidity 79    
Maximum Humidity 92    
Minimum Humidity 49    
Precipitation  
Precipitation 0.00 in - - ()
Sea Level Pressure  
Sea Level Pressure 30.21 in    
Wind  
Wind Speed 14 mph (NNE)    
Max Wind Speed 20 mph    
Max Gust Speed 24 mph    
Visibility 6 miles    
Events Snow    
Averages and records for this station are not official NWS values.
T = Trace of Precipitation, MM = Missing Value Source: NWS Daily Summary

Daily Weather History Graph

Daily Weather History Graph

Search for Another Location

Airport:

Trip Planner

Search our weather history database for the weather conditions in past years. The results will help you decide how hot, cold, wet, or windy it might be!

Date:

Astronomy

Feb. 09, 2013 Rise Set
Actual Time 7:10 AM EST 5:24 PM EST
Civil Twilight 6:40 AM EST 5:54 PM EST
Nautical Twilight 6:06 AM EST 6:28 PM EST
Astronomical Twilight 5:32 AM EST 7:02 PM EST
Moon 6:20 AM EST (2/9) 5:05 PM EST (2/9)
Length of Visible Light 11h 14m
Length of Day
10h 14m
Waning Crescent, 0% of the Moon is Illuminated
Feb 9
Waning Crescent
Feb 10
New
Feb 17
First Quarter
Feb 25
Full
Mar 4
Last Quarter

Hourly Weather History & Observations

Time (EST) Temp. Windchill Dew Point Humidity Pressure Visibility Wind Dir Wind Speed Gust Speed Precip Events Conditions
12:01 AM 12.2 °F -5.3 °F 8.6 °F 85% 30.04 in 2.5 mi NNE 18.4 mph 23.0 mph N/A Snow Light Snow
12:21 AM 10.4 °F -5.4 °F 8.6 °F 92% 30.05 in 3.0 mi NNE 13.8 mph - N/A Snow Light Snow
12:25 AM 10.4 °F -6.0 °F 8.6 °F 92% 30.06 in 3.0 mi NNE 15.0 mph - N/A Snow Light Snow
12:27 AM 10.4 °F -6.6 °F 8.6 °F 92% 30.06 in 3.0 mi NNE 16.1 mph - N/A Snow Light Snow
12:28 AM 10.4 °F -6.6 °F 8.6 °F 92% 30.06 in 3.0 mi NNE 16.1 mph - N/A Snow Light Snow
12:33 AM 10.4 °F -5.4 °F 6.8 °F 85% 30.06 in 3.0 mi NNE 13.8 mph - N/A Snow Light Snow
12:39 AM 10.4 °F -7.2 °F 6.8 °F 85% 30.06 in 3.0 mi NNE 17.3 mph 21.9 mph N/A Snow Light Snow
12:41 AM 10.4 °F -6.6 °F 6.8 °F 85% 30.06 in 2.5 mi NNE 16.1 mph 21.9 mph N/A Snow Light Snow
12:46 AM 10.4 °F -6.0 °F 6.8 °F 85% 30.06 in 2.0 mi NNE 15.0 mph 21.9 mph N/A Snow Light Snow
12:47 AM 10.4 °F -6.6 °F 6.8 °F 85% 30.07 in 2.0 mi NNE 16.1 mph - N/A Snow Light Snow
12:53 AM 10.4 °F -7.2 °F 6.8 °F 85% 30.07 in 1.8 mi NNE 17.3 mph 24.2 mph N/A Snow Light Snow
12:55 AM 10.4 °F -6.0 °F 7.3 °F 87% 30.07 in 1.8 mi NNE 15.0 mph 24.2 mph 0.00 in Snow Light Snow
1:06 AM 10.4 °F -7.7 °F 6.8 °F 85% 30.07 in 2.0 mi NNE 18.4 mph - N/A Snow Light Snow
1:13 AM 10.4 °F -7.7 °F 6.8 °F 85% 30.07 in 2.5 mi NNE 18.4 mph - N/A Snow Light Snow
1:25 AM 10.4 °F -7.7 °F 6.8 °F 85% 30.08 in 2.5 mi NE 18.4 mph - N/A Snow Light Snow
1:26 AM 10.4 °F -8.2 °F 6.8 °F 85% 30.08 in 3.0 mi NE 19.6 mph - N/A Snow Light Snow
1:55 AM 10.0 °F -8.1 °F 6.4 °F 85% 30.10 in 4.0 mi NNE 18.4 mph 24.2 mph 0.00 in Snow Light Snow
1:56 AM 10.4 °F -7.7 °F 6.8 °F 85% 30.10 in 5.0 mi NNE 18.4 mph 24.2 mph N/A Snow Light Snow
2:04 AM 10.4 °F -5.4 °F 6.8 °F 85% 30.11 in 6.0 mi NNE 13.8 mph - N/A Snow Light Snow
2:05 AM 10.4 °F -5.4 °F 6.8 °F 85% 30.10 in 6.0 mi NNE 13.8 mph - N/A Snow Light Snow
2:08 AM 10.4 °F -6.0 °F 6.8 °F 85% 30.11 in 6.0 mi NNE 15.0 mph - N/A Snow Light Snow
2:09 AM 10.4 °F -6.6 °F 6.8 °F 85% 30.11 in 6.0 mi NNE 16.1 mph - N/A Snow Light Snow
2:13 AM 10.4 °F -7.2 °F 6.8 °F 85% 30.11 in 6.0 mi NNE 17.3 mph - N/A Snow Light Snow
2:25 AM 10.4 °F -7.2 °F 5.0 °F 79% 30.11 in 7.0 mi NNE 17.3 mph - N/A   Overcast
2:31 AM 10.4 °F -6.6 °F 5.0 °F 79% 30.11 in 7.0 mi NNE 16.1 mph - N/A   Overcast
2:34 AM 10.4 °F -6.0 °F 5.0 °F 79% 30.11 in 7.0 mi NNE 15.0 mph - N/A   Overcast
2:39 AM 10.4 °F -7.2 °F 5.0 °F 79% 30.12 in 7.0 mi NNE 17.3 mph - N/A   Overcast
2:50 AM 10.4 °F -5.4 °F 5.0 °F 79% 30.12 in 7.0 mi NE 13.8 mph - N/A Snow Light Snow
2:52 AM 8.6 °F -8.3 °F 5.0 °F 85% 30.12 in 7.0 mi NNE 15.0 mph - N/A Snow Light Snow
2:55 AM 9.3 °F -8.6 °F 5.5 °F 85% 30.12 in 7.0 mi NE 17.3 mph - 0.00 in Snow Light Snow
2:56 AM 8.6 °F -9.5 °F 5.0 °F 85% 30.12 in 7.0 mi NE 17.3 mph - N/A Snow Light Snow
2:57 AM 8.6 °F -9.5 °F 5.0 °F 85% 30.12 in 7.0 mi NE 17.3 mph - N/A Snow Light Snow
2:58 AM 8.6 °F -8.3 °F 5.0 °F 85% 30.12 in 7.0 mi NNE 15.0 mph - N/A Snow Light Snow
3:01 AM 8.6 °F -8.3 °F 5.0 °F 85% 30.12 in 7.0 mi NNE 15.0 mph - N/A   Overcast
3:06 AM 10.4 °F -5.4 °F 5.0 °F 79% 30.12 in 7.0 mi NNE 13.8 mph - N/A   Overcast
3:09 AM 10.4 °F -6.6 °F 5.0 °F 79% 30.13 in 8.0 mi NNE 16.1 mph - N/A   Light Freezing Rain
3:10 AM 10.4 °F -6.6 °F 5.0 °F 79% 30.13 in 8.0 mi NNE 16.1 mph - N/A   Light Freezing Rain
3:14 AM 10.4 °F -5.4 °F 5.0 °F 79% 30.13 in 8.0 mi NNE 13.8 mph - N/A   Light Freezing Rain
3:17 AM 10.4 °F -5.4 °F 5.0 °F 79% 30.13 in 7.0 mi NNE 13.8 mph - N/A   Light Freezing Rain
3:19 AM 10.4 °F -4.8 °F 5.0 °F 79% 30.13 in 7.0 mi NNE 12.7 mph - N/A   Overcast
3:20 AM 10.4 °F -4.8 °F 5.0 °F 79% 30.13 in 7.0 mi NNE 12.7 mph - N/A   Overcast
3:21 AM 10.4 °F -6.0 °F 5.0 °F 79% 30.13 in 7.0 mi NNE 15.0 mph - N/A Snow Light Snow
3:28 AM 10.4 °F -4.1 °F 5.0 °F 79% 30.14 in 6.0 mi NNE 11.5 mph - N/A Snow Light Snow
3:35 AM 10.4 °F -5.4 °F 5.0 °F 79% 30.14 in 5.0 mi NNE 13.8 mph - N/A Snow Light Snow
3:38 AM 10.4 °F -6.6 °F 5.0 °F 79% 30.14 in 4.0 mi NNE 16.1 mph - N/A Snow Light Snow
3:55 AM 9.7 °F -6.3 °F 5.7 °F 84% 30.15 in 4.0 mi NNE 13.8 mph - 0.00 in Snow Light Snow
3:57 AM 10.4 °F -5.4 °F 5.0 °F 79% 30.15 in 4.0 mi NNE 13.8 mph - N/A Snow Light Snow
4:09 AM 10.4 °F -4.8 °F 5.0 °F 79% 30.16 in 6.0 mi NNE 12.7 mph - N/A Snow Light Snow
4:18 AM 10.4 °F -4.1 °F 5.0 °F 79% 30.17 in 6.0 mi NNE 11.5 mph - N/A Snow Light Snow
4:19 AM 10.4 °F -4.8 °F 5.0 °F 79% 30.17 in 6.0 mi NNE 12.7 mph - N/A Snow Light Snow
4:21 AM 10.4 °F -6.0 °F 5.0 °F 79% 30.17 in 6.0 mi NNE 15.0 mph - N/A Snow Light Snow
4:22 AM 10.4 °F -4.8 °F 5.0 °F 79% 30.17 in 6.0 mi NNE 12.7 mph - N/A Snow Light Snow
4:24 AM 10.4 °F -6.0 °F 5.0 °F 79% 30.17 in 6.0 mi NNE 15.0 mph - N/A Snow Light Snow
4:25 AM 10.4 °F -6.0 °F 5.0 °F 79% 30.17 in 6.0 mi NNE 15.0 mph - N/A Snow Light Snow
4:29 AM 10.4 °F -5.4 °F 5.0 °F 79% 30.17 in 6.0 mi NNE 13.8 mph - N/A Snow Blowing Snow
4:37 AM 10.4 °F -6.0 °F 5.0 °F 79% 30.18 in 7.0 mi NNE 15.0 mph - N/A Snow Light Snow
4:40 AM 10.4 °F -6.0 °F 5.0 °F 79% 30.18 in 7.0 mi NNE 15.0 mph - N/A   Overcast
4:42 AM 10.4 °F -6.6 °F 5.0 °F 79% 30.18 in 7.0 mi NNE 16.1 mph - N/A   Overcast
4:45 AM 10.4 °F -4.8 °F 5.0 °F 79% 30.18 in 6.0 mi North 12.7 mph - N/A Snow Blowing Snow
4:49 AM 10.4 °F -4.1 °F 5.0 °F 79% 30.18 in 6.0 mi NNE 11.5 mph - N/A Snow Blowing Snow
4:52 AM 10.4 °F -4.1 °F 5.0 °F 79% 30.19 in 6.0 mi NNE 11.5 mph - N/A Snow Light Snow
4:55 AM 9.9 °F -6.1 °F 5.7 °F 83% 30.19 in 6.0 mi NNE 13.8 mph - 0.00 in Snow Light Snow
5:03 AM 10.4 °F -6.0 °F 5.0 °F 79% 30.19 in 6.0 mi NNE 15.0 mph - N/A Snow Blowing Snow
5:06 AM 10.4 °F -6.0 °F 5.0 °F 79% 30.19 in 6.0 mi NNE 15.0 mph - N/A Snow Blowing Snow
5:16 AM 10.4 °F -4.8 °F 5.0 °F 79% 30.19 in 7.0 mi NNE 12.7 mph - N/A Snow Blowing Snow
5:18 AM 10.4 °F -4.8 °F 5.0 °F 79% 30.19 in 7.0 mi NNE 12.7 mph - N/A Snow Blowing Snow
5:19 AM 10.4 °F -4.1 °F 5.0 °F 79% 30.20 in 7.0 mi North 11.5 mph - N/A Snow Blowing Snow
5:20 AM 10.4 °F -4.1 °F 5.0 °F 79% 30.20 in 7.0 mi North 11.5 mph - N/A   Overcast
5:21 AM 10.4 °F -4.8 °F 5.0 °F 79% 30.20 in 7.0 mi North 12.7 mph - N/A   Overcast
5:23 AM 10.4 °F -4.1 °F 5.0 °F 79% 30.20 in 7.0 mi North 11.5 mph - N/A   Overcast
5:29 AM 10.4 °F -7.2 °F 5.0 °F 79% 30.20 in 7.0 mi North 17.3 mph - N/A   Overcast
5:31 AM 10.4 °F -6.0 °F 5.0 °F 79% 30.20 in 7.0 mi NNE 15.0 mph - N/A   Light Freezing Rain
5:37 AM 10.4 °F -5.4 °F 5.0 °F 79% 30.20 in 8.0 mi North 13.8 mph - N/A   Overcast
5:40 AM 10.4 °F -5.4 °F 5.0 °F 79% 30.21 in 8.0 mi NNE 13.8 mph - N/A   Light Freezing Rain
5:48 AM 10.4 °F -6.0 °F 5.0 °F 79% 30.21 in 8.0 mi NNE 15.0 mph - N/A   Overcast
5:52 AM 10.4 °F -4.8 °F 5.0 °F 79% 30.21 in 8.0 mi NNE 12.7 mph - N/A   Overcast
5:54 AM 10.4 °F -4.8 °F 5.0 °F 79% 30.21 in 8.0 mi NNE 12.7 mph - N/A   Overcast
5:55 AM 9.9 °F -4.7 °F 5.7 °F 83% 30.21 in 8.0 mi NNE 11.5 mph - 0.00 in   Overcast
6:00 AM 10.4 °F -5.4 °F 5.0 °F 79% 30.22 in 8.0 mi NNE 13.8 mph - N/A   Overcast
6:02 AM 10.4 °F -6.6 °F 5.0 °F 79% 30.22 in 8.0 mi NNE 16.1 mph - N/A   Overcast
6:04 AM 10.4 °F -4.1 °F 5.0 °F 79% 30.22 in 8.0 mi NNE 11.5 mph - N/A   Overcast
6:08 AM 10.4 °F -4.8 °F 5.0 °F 79% 30.22 in 8.0 mi NNE 12.7 mph - N/A   Overcast
6:09 AM 10.4 °F -5.4 °F 5.0 °F 79% 30.22 in 8.0 mi NNE 13.8 mph - N/A   Overcast
6:12 AM 10.4 °F -4.8 °F 5.0 °F 79% 30.22 in 8.0 mi NNE 12.7 mph - N/A   Overcast
6:14 AM 10.4 °F -4.8 °F 5.0 °F 79% 30.22 in 8.0 mi NNE 12.7 mph - N/A   Overcast
6:17 AM 10.4 °F -5.4 °F 5.0 °F 79% 30.22 in 8.0 mi NNE 13.8 mph - N/A   Overcast
6:21 AM 10.4 °F -4.8 °F 5.0 °F 79% 30.23 in 8.0 mi NNE 12.7 mph - N/A   Overcast
6:55 AM 8.8 °F -6.1 °F 3.7 °F 80% 30.25 in 9.0 mi NNE 11.5 mph - N/A   Clear
7:10 AM 8.6 °F -7.7 °F 3.2 °F 79% 30.26 in 7.0 mi NNE 13.8 mph - N/A   Partly Cloudy
7:11 AM 8.6 °F -7.0 °F 3.2 °F 79% 30.26 in 7.0 mi NNE 12.7 mph - N/A Snow Light Snow
7:19 AM 8.6 °F -5.5 °F 3.2 °F 79% 30.26 in 6.0 mi NNE 10.4 mph - N/A Snow Light Snow
7:21 AM 8.6 °F -4.7 °F 3.2 °F 79% 30.26 in 6.0 mi NNE 9.2 mph - N/A Snow Light Snow
7:29 AM 8.6 °F -5.5 °F 3.2 °F 79% 30.27 in 7.0 mi North 10.4 mph - N/A   Mostly Cloudy
7:40 AM 8.6 °F -7.0 °F 3.2 °F 79% 30.27 in 7.0 mi NNE 12.7 mph - N/A   Mostly Cloudy
7:47 AM 8.6 °F -6.3 °F 3.2 °F 79% 30.27 in 8.0 mi NNE 11.5 mph - N/A   Scattered Clouds
7:55 AM 8.2 °F -6.0 °F 3.6 °F 81% 30.28 in 8.0 mi NE 10.4 mph - 0.00 in   Partly Cloudy
8:12 AM 8.6 °F -6.3 °F 3.2 °F 79% 30.28 in 8.0 mi NNE 11.5 mph - N/A   Mostly Cloudy
8:35 AM 10.4 °F -2.4 °F 5.0 °F 79% 30.30 in 8.0 mi NNE 9.2 mph - N/A Snow Light Snow
8:37 AM 10.4 °F -4.8 °F 5.0 °F 79% 30.30 in 7.0 mi NNE 12.7 mph - N/A Snow Light Snow
8:40 AM 10.4 °F -3.3 °F 5.0 °F 79% 30.30 in 7.0 mi NNE 10.4 mph - N/A Snow Light Snow
8:45 AM 10.4 °F -1.5 °F 5.0 °F 79% 30.30 in 6.0 mi NNE 8.1 mph - N/A Snow Light Snow
8:48 AM 10.4 °F -2.4 °F 5.0 °F 79% 30.30 in 5.0 mi NNE 9.2 mph - N/A Snow Light Snow
8:55 AM 9.9 °F -3.1 °F 5.5 °F 83% 30.30 in 4.0 mi NNE 9.2 mph - 0.00 in Snow Light Snow
9:01 AM 10.4 °F -1.5 °F 5.0 °F 79% 30.30 in 3.0 mi NNE 8.1 mph - N/A Snow Light Snow
9:52 AM 12.2 °F -0.2 °F 6.8 °F 79% 30.31 in 4.0 mi North 9.2 mph - N/A Snow Light Snow
9:55 AM 12.0 °F -2.7 °F 7.2 °F 81% 30.31 in 3.0 mi NNW 12.7 mph - 0.00 in Snow Light Snow
9:59 AM 12.2 °F -1.8 °F 6.8 °F 79% 30.31 in 3.0 mi North 11.5 mph - N/A Snow Light Snow
10:00 AM 12.2 °F -1.8 °F 6.8 °F 79% 30.31 in 3.0 mi North 11.5 mph - N/A Snow Light Snow
10:01 AM 12.2 °F -1.0 °F 6.8 °F 79% 30.31 in 2.5 mi North 10.4 mph - N/A Snow Light Snow
10:03 AM 12.2 °F -0.2 °F 6.8 °F 79% 30.31 in 2.5 mi NNW 9.2 mph - N/A Snow Light Snow
10:07 AM 12.2 °F 0.7 °F 6.8 °F 79% 30.31 in 2.5 mi North 8.1 mph - N/A Snow Light Snow
10:08 AM 10.4 °F -2.4 °F 6.8 °F 85% 30.32 in 3.0 mi North 9.2 mph - N/A Snow Light Snow
10:12 AM 10.4 °F -2.4 °F 6.8 °F 85% 30.32 in 3.0 mi North 9.2 mph - N/A Snow Light Snow
10:13 AM 10.4 °F -1.5 °F 6.8 °F 85% 30.32 in 3.0 mi North 8.1 mph - N/A Snow Light Snow
10:16 AM 12.2 °F 0.7 °F 6.8 °F 79% 30.32 in 3.0 mi North 8.1 mph - N/A Snow Light Snow
10:22 AM 12.2 °F -2.5 °F 6.8 °F 79% 30.32 in 5.0 mi NNE 12.7 mph 18.4 mph N/A Snow Light Snow
10:28 AM 12.2 °F -1.8 °F 6.8 °F 79% 30.33 in 7.0 mi NNE 11.5 mph 18.4 mph N/A Snow Light Snow
10:44 AM 12.2 °F -1.8 °F 6.8 °F 79% 30.33 in 9.0 mi North 11.5 mph - N/A Snow Light Snow
10:46 AM 12.2 °F -1.8 °F 6.8 °F 79% 30.33 in 9.0 mi North 11.5 mph - N/A Snow Light Snow
10:47 AM 12.2 °F -1.8 °F 6.8 °F 79% 30.33 in 9.0 mi North 11.5 mph - N/A Snow Light Snow
10:48 AM 12.2 °F -2.5 °F 6.8 °F 79% 30.33 in 9.0 mi North 12.7 mph - N/A   Overcast
10:50 AM 12.2 °F -1.8 °F 6.8 °F 79% 30.33 in 9.0 mi NNE 11.5 mph - N/A   Overcast
10:52 AM 12.2 °F -1.0 °F 5.0 °F 73% 30.33 in 9.0 mi NNE 10.4 mph - N/A   Overcast
10:55 AM 12.7 °F -0.4 °F 5.9 °F 74% 30.33 in 9.0 mi North 10.4 mph - 0.00 in   Overcast
11:25 AM 14.0 °F 2.0 °F 5.0 °F 67% 30.33 in 10.0 mi NNE 9.2 mph - N/A   Scattered Clouds
11:55 AM 14.5 °F 2.7 °F 4.8 °F 65% 30.33 in 10.0 mi North 9.2 mph - N/A   Partly Cloudy
12:55 PM 16.9 °F 4.8 °F 5.0 °F 60% 30.32 in 10.0 mi WNW 10.4 mph - N/A   Clear
1:55 PM 17.8 °F 5.9 °F 5.9 °F 60% 30.32 in 10.0 mi NW 10.4 mph - N/A   Clear
2:55 PM 18.7 °F 9.5 °F 3.6 °F 52% 30.32 in 10.0 mi NW 6.9 mph - N/A   Clear
3:55 PM 19.4 °F 10.4 °F 3.2 °F 49% 30.34 in 10.0 mi NW 6.9 mph - N/A   Clear
4:55 PM 18.3 °F 10.2 °F 1.8 °F 49% 30.36 in 10.0 mi NNW 5.8 mph - N/A   Clear
5:55 PM 13.5 °F - -0.4 °F 54% 30.37 in 10.0 mi Calm Calm - N/A   Clear
6:55 PM 10.4 °F - -0.0 °F 63% 30.39 in 10.0 mi Calm Calm - N/A   Clear
7:55 PM 9.5 °F - -2.4 °F 59% 30.41 in 10.0 mi Calm Calm - N/A   Clear
8:55 PM 1.0 °F -6.7 °F -3.1 °F 83% 30.42 in 10.0 mi South 3.5 mph - N/A   Clear
9:55 PM -1.1 °F -9.1 °F -6.3 °F 79% 30.42 in 10.0 mi South 3.5 mph - N/A   Clear
10:55 PM 0.3 °F -7.5 °F -5.3 °F 77% 30.42 in 10.0 mi South 3.5 mph - N/A   Clear
11:55 PM -4.4 °F -16.7 °F -8.7 °F 82% 30.43 in 10.0 mi SSE 5.8 mph - N/A   Clear